TimeCET,TemperatureF,Dew PointF,Humidity,Sea Level PressureIn,VisibilityMPH,Wind Direction,Wind SpeedMPH,Gust SpeedMPH,PrecipitationIn,Events,Conditions,WindDirDegrees,DateUTC
12:20 AM,28.4,26.6,93,30.06,1.9,WNW,3.5,-,N/A,,Scattered Clouds,300,2013-02-08 23:20:00
12:50 AM,28.4,26.6,93,30.06,-9999.0,NW,3.5,-,N/A,,Mostly Cloudy,310,2013-02-08 23:50:00
1:00 AM,28,27,93,30.11,2,NW,4.5,,,,Mist,310,2013-02-09 00:00:00
1:20 AM,28.4,26.6,93,30.06,2.2,Variable,2.3,-,N/A,,Mostly Cloudy,0,2013-02-09 00:20:00
1:50 AM,28.4,26.6,93,30.06,-9999.0,NW,4.6,-,N/A,,Mostly Cloudy,320,2013-02-09 00:50:00
2:20 AM,28.4,26.6,93,30.06,-9999.0,NW,3.5,-,N/A,,Mostly Cloudy,320,2013-02-09 01:20:00
2:50 AM,28.4,26.6,93,30.06,2.8,NW,4.6,-,N/A,,Mostly Cloudy,320,2013-02-09 01:50:00
3:20 AM,28.4,26.6,93,30.06,3.7,NW,3.5,-,N/A,,Mostly Cloudy,310,2013-02-09 02:20:00
3:50 AM,28.4,26.6,93,30.06,3.1,WNW,3.5,-,N/A,,Mostly Cloudy,300,2013-02-09 02:50:00
4:00 AM,28,26,91,30.11,3,WNW,2.2,,,,Mist,300,2013-02-09 03:00:00
4:20 AM,28.4,26.6,93,30.06,3.1,NW,3.5,-,N/A,,Mostly Cloudy,310,2013-02-09 03:20:00
4:50 AM,28.4,26.6,93,30.06,2.8,West,3.5,-,N/A,Snow,Mostly Cloudy,280,2013-02-09 03:50:00
5:20 AM,28.4,26.6,93,30.06,2.8,WNW,3.5,-,N/A,Snow,Mostly Cloudy,300,2013-02-09 04:20:00
5:50 AM,28.4,26.6,93,30.06,2.8,WNW,3.5,-,N/A,Snow,Mostly Cloudy,300,2013-02-09 04:50:00
6:20 AM,28.4,26.6,93,30.06,2.5,NW,3.5,-,N/A,Snow,Mostly Cloudy,320,2013-02-09 05:20:00
6:50 AM,26.6,26.6,100,30.06,2.2,Variable,2.3,-,N/A,Fog-Snow,Light Fog,0,2013-02-09 05:50:00
7:00 AM,26,26,99,30.12,2,NW,2.2,,,Fog,Patches of Fog,320,2013-02-09 06:00:00
7:20 AM,24.8,24.8,100,30.06,1.2,Variable,2.3,-,N/A,Fog,Light Freezing Fog,0,2013-02-09 06:20:00
7:50 AM,26.6,26.6,100,30.09,1.6,NW,3.5,-,N/A,Fog,Fog,320,2013-02-09 06:50:00
8:20 AM,26.6,26.6,100,30.09,1.2,Variable,2.3,-,N/A,,Mostly Cloudy,0,2013-02-09 07:20:00
8:50 AM,26.6,26.6,100,30.09,1.1,Variable,2.3,-,N/A,Fog,Fog,0,2013-02-09 07:50:00
9:20 AM,26.6,26.6,100,30.09,1.1,Variable,1.2,-,N/A,,Mostly Cloudy,0,2013-02-09 08:20:00
9:50 AM,26.6,26.6,100,30.09,1.9,Variable,2.3,-,N/A,,Mostly Cloudy,0,2013-02-09 08:50:00
10:00 AM,27,26,95,30.16,2,NE,2.2,,,,Mist,50,2013-02-09 09:00:00
10:20 AM,26.6,24.8,93,30.09,1.9,Variable,1.2,-,N/A,,Mostly Cloudy,0,2013-02-09 09:20:00
10:50 AM,28.4,24.8,86,30.09,2.5,Variable,1.2,-,N/A,,Mostly Cloudy,0,2013-02-09 09:50:00
11:20 AM,28.4,24.8,86,30.12,3.1,Variable,1.2,-,N/A,,Mostly Cloudy,0,2013-02-09 10:20:00
11:50 AM,28.4,26.6,93,30.12,3.1,Variable,2.3,-,N/A,,Mostly Cloudy,0,2013-02-09 10:50:00
12:20 PM,28.4,24.8,86,30.12,5.6,WSW,3.5,-,N/A,,Mostly Cloudy,250,2013-02-09 11:20:00
12:50 PM,30.2,24.8,80,30.12,5.6,Variable,2.3,-,N/A,,Scattered Clouds,0,2013-02-09 11:50:00
1:00 PM,30,26,78,30.16,6,West,2.2,,,,Partly Cloudy,270,2013-02-09 12:00:00
1:20 PM,30.2,24.8,80,30.09,6.2,Variable,2.3,-,N/A,,Scattered Clouds,0,2013-02-09 12:20:00
1:50 PM,30.2,24.8,80,30.09,6.2,Variable,2.3,-,N/A,,Partly Cloudy,0,2013-02-09 12:50:00
2:20 PM,32.0,24.8,75,30.09,6.2,Variable,2.3,-,N/A,,Partly Cloudy,0,2013-02-09 13:20:00
2:50 PM,32.0,24.8,75,30.09,6.2,Variable,1.2,-,N/A,,Partly Cloudy,0,2013-02-09 13:50:00
3:20 PM,32.0,24.8,75,30.09,6.2,Calm,Calm,-,N/A,,Partly Cloudy,0,2013-02-09 14:20:00
3:50 PM,33.8,24.8,70,30.06,6.2,Variable,2.3,-,N/A,,Partly Cloudy,0,2013-02-09 14:50:00
4:00 PM,33,25,63,30.12,12,West,2.2,,,,Scattered Clouds,260,2013-02-09 15:00:00
4:20 PM,32.0,24.8,75,30.06,6.2,Variable,1.2,-,N/A,,Partly Cloudy,0,2013-02-09 15:20:00
4:50 PM,32.0,24.8,75,30.06,6.2,Variable,1.2,-,N/A,,Partly Cloudy,0,2013-02-09 15:50:00
5:20 PM,32.0,24.8,75,30.06,6.2,Variable,1.2,-,N/A,,Partly Cloudy,0,2013-02-09 16:20:00
5:50 PM,32.0,24.8,75,30.06,6.2,SW,5.8,-,N/A,,Partly Cloudy,220,2013-02-09 16:50:00
6:20 PM,30.2,24.8,80,30.06,6.2,SW,4.6,-,N/A,,Partly Cloudy,220,2013-02-09 17:20:00
6:50 PM,30.2,24.8,80,30.06,6.2,South,5.8,-,N/A,,Scattered Clouds,180,2013-02-09 17:50:00
7:00 PM,31,24,68,30.12,12,South,6.7,,,,Partly Cloudy,180,2013-02-09 18:00:00
7:20 PM,32.0,24.8,75,30.06,6.2,South,5.8,-,N/A,,Scattered Clouds,180,2013-02-09 18:20:00
7:50 PM,30.2,24.8,80,30.06,6.2,SSW,6.9,-,N/A,Snow,Light Snow,200,2013-02-09 18:50:00
8:20 PM,30.2,24.8,80,30.04,6.2,SSW,8.1,-,N/A,Snow,Light Snow,200,2013-02-09 19:20:00
8:50 PM,30.2,23.0,75,30.04,6.2,SSW,6.9,-,N/A,,Scattered Clouds,200,2013-02-09 19:50:00
9:20 PM,30.2,23.0,75,30.04,6.2,SSW,6.9,-,N/A,,Partly Cloudy,210,2013-02-09 20:20:00
9:50 PM,30.2,23.0,75,30.04,6.2,South,8.1,-,N/A,,Scattered Clouds,190,2013-02-09 20:50:00
10:00 PM,30,24,68,30.08,11,South,8.9,,,,Partly Cloudy,190,2013-02-09 21:00:00
10:20 PM,30.2,24.8,80,30.04,6.2,South,6.9,-,N/A,,Partly Cloudy,180,2013-02-09 21:20:00
10:50 PM,30.2,23.0,75,30.01,6.2,South,4.6,-,N/A,,Partly Cloudy,180,2013-02-09 21:50:00
11:20 PM,30.2,23.0,75,30.01,6.2,South,5.8,-,N/A,,Scattered Clouds,170,2013-02-09 22:20:00
11:50 PM,30.2,23.0,75,30.01,6.2,South,6.9,-,N/A,,Scattered Clouds,180,2013-02-09 22:50:00